Home   Weather   Melbourne   Past weeks

Flag for Australia Past Weather in Melbourne, Victoria, Australia — Yesterday and Last 2 Weeks

Now
45 °F

Passing clouds.


Feels Like: 37 °F
Forecast: 46 / 54 °F
Wind: 17 mph from West

Location: Melbourne Airport

Current Time: Aug 18, 2017 at 5:40:19 am

Latest Report: Aug 18, 2017 at 5:00 am


Visibility: N/A

Pressure: 29.68 "Hg

Humidity: 71%

Dew Point: 36 °F

Location of MelbourneLocation

Past Weather in Melbourne — Graph

°F

Melbourne Temperature Yesterday

Maximum temperature yesterday: 59 °F (at 12:06 pm)
Minimum temperature yesterday: 41 °F (at 11:30 pm)
Average temperature yesterday: 51 °F

High & Low Weather Summary for the Past Weeks

 TemperatureHumidityPressure
High66 °F (Aug 14, 2:00 pm)100% (Aug 3, 6:00 am)30.18 "Hg (Aug 3, 6:00 am)
Low34 °F (Aug 3, 6:00 am)32% (Aug 16, 2:00 pm)29.36 "Hg (Aug 16, 2:00 am)
Average52 °F70%29.81 "Hg
* Reported Aug 3 4:00 am — Aug 18 4:30 am, Melbourne. Weather by CustomWeather, © 2017

Note: Actual official high and low records may vary slightly from our data, if they occured in-between our weather recording intervals... More about our weather records

Advertising

Melbourne Weather History for the Previous 24 Hours

Scroll right to see more
 ConditionsComfort  
Time TempWeatherWind HumidityBarometerVisibility
4:30 am
Fri, Aug 18
46 °FPartly cloudy.15 mph66%29.68 "HgN/A
4:00 am45 °FPassing clouds.16 mph71%29.68 "HgN/A
3:30 am45 °FPassing clouds.9 mph71%29.68 "HgN/A
3:00 am45 °FPassing clouds.13 mph71%29.65 "HgN/A
2:30 am43 °FPassing clouds.10 mph76%29.65 "HgN/A
2:00 am45 °FPassing clouds.9 mph71%29.68 "HgN/A
1:30 am45 °FPassing clouds.10 mph71%29.68 "HgN/A
1:00 am45 °FPassing clouds.7 mph71%29.65 "HgN/A
12:30 am45 °FPassing clouds.7 mph71%29.65 "HgN/A
12:00 am45 °FPassing clouds.8 mph71%29.65 "HgN/A
11:30 pm
Thu, Aug 17
41 °FClear.8 mph93%29.65 "Hg10 mi
11:00 pm45 °FClear.10 mph81%29.65 "Hg10 mi
10:30 pm45 °FPassing clouds.10 mph81%29.65 "HgN/A
10:00 pm46 °FPassing clouds.20 mph71%29.65 "HgN/A
9:30 pm46 °FClear.17 mph71%29.65 "Hg10 mi
9:00 pm46 °FClear.16 mph71%29.65 "Hg10 mi
8:30 pm46 °FClear.12 mph71%29.62 "Hg10 mi
8:00 pm46 °FPassing clouds.14 mph76%29.65 "HgN/A
7:30 pm46 °FSprinkles. Partly cloudy.13 mph82%29.65 "HgN/A
7:00 pm48 °FSprinkles. Partly cloudy.12 mph71%29.62 "HgN/A
6:30 pm48 °FPassing clouds.10 mph71%29.62 "HgN/A
6:00 pm48 °FPassing clouds.9 mph71%29.59 "HgN/A
5:30 pm50 °FPartly sunny.9 mph71%29.59 "HgN/A
5:00 pm48 °FScattered showers. Broken clouds.13 mph87%29.59 "HgN/A
4:30 pm50 °FSprinkles. Broken clouds.21 mph82%29.59 "HgN/A
4:00 pm57 °FPartly sunny.16 mph48%29.56 "HgN/A
3:30 pm57 °FBroken clouds.21 mph48%29.56 "HgN/A
3:12 pm59 °FBroken clouds.21 mph42%29.56 "HgN/A
3:00 pm59 °FBroken clouds.18 mph42%29.56 "HgN/A
2:30 pm57 °FBroken clouds.22 mph48%29.56 "HgN/A
2:19 pm59 °FScattered clouds.22 mph42%29.56 "HgN/A
2:00 pm59 °FScattered clouds.26 mph45%29.56 "HgN/A
1:30 pm57 °FScattered showers. Partly sunny.23 mph44%29.56 "HgN/A
1:00 pm57 °FScattered clouds.18 mph51%29.56 "HgN/A
12:30 pm59 °FPartly sunny.21 mph51%29.56 "HgN/A
12:06 pm59 °FPassing clouds.25 mph48%29.56 "HgN/A
11:30 am57 °FPassing clouds.26 mph48%29.56 "HgN/A
11:00 am55 °FScattered clouds.21 mph59%29.56 "HgN/A
10:00 am50 °FPartly sunny.13 mph76%29.59 "HgN/A
9:30 am46 °FBroken clouds.13 mph87%29.56 "HgN/A
9:00 am46 °FLight rain. Broken clouds.13 mph82%29.59 "HgN/A
8:30 am46 °FLight rain. Broken clouds.13 mph82%29.59 "HgN/A
8:00 am48 °FSprinkles. Partly sunny.12 mph87%29.62 "Hg5 mi
7:30 am48 °FSprinkles. Broken clouds.15 mph87%29.59 "HgN/A
7:00 am48 °FLight rain. Passing clouds.10 mph87%29.59 "HgN/A
6:30 am48 °FSprinkles. Partly cloudy.9 mph87%29.59 "HgN/A
6:00 am50 °FSprinkles. Partly cloudy.12 mph76%29.59 "HgN/A
5:30 am52 °FSprinkles. Partly cloudy.15 mph67%29.56 "HgN/A
5:00 am52 °FPartly cloudy.14 mph67%29.56 "HgN/A
Weather by CustomWeather, © 2017

See weather overviewHow to use our weather pages